Weather History for KPOF - January, 2013

Change the Weather History Date:

Thursday, January 10, 2013

  Actual Average (KCGI) Record (KCGI)
Temperature  
Mean Temperature 55 °F 33 °F  
Max Temperature 64 °F 42 °F 64 °F (2013)
Min Temperature 46 °F 24 °F -10 °F (1982)
Degree Days  
Heating Degree Days 10 32  
Month to date heating degree days 320  
Since 1 July heating degree days 2071  
Cooling Degree Days 0 0  
Month to date cooling degree days 0  
Year to date cooling degree days 0  
Growing Degree Days 5 (Base 50)    
Moisture  
Dew Point 52 °F    
Average Humidity 90    
Maximum Humidity 94    
Minimum Humidity 71    
Precipitation  
Precipitation 0.38 in 0.11 in 1.83 in (2006)
Month to date precipitation 1.16  
Year to date precipitation 1.16  
Sea Level Pressure  
Sea Level Pressure 30.07 in    
Wind  
Wind Speed 10 mph (East)    
Max Wind Speed 20 mph    
Max Gust Speed 38 mph    
Visibility 6 miles    
Events Rain , Thunderstorm    
T = Trace of Precipitation, MM = Missing Value Source: NWS Daily Summary

Daily Weather History Graph

Daily Weather History Graph

Search for Another Location

Airport or City:

Trip Planner

Search our weather history database for the weather conditions in past years. The results will help you decide how hot, cold, wet, or windy it might be!

Date:

Astronomy

Jan. 10, 2013 Rise Set
Actual Time 7:14 AM CST 5:04 PM CST
Civil Twilight 6:45 AM CST 5:32 PM CST
Nautical Twilight 6:13 AM CST 6:04 PM CST
Astronomical Twilight 5:42 AM CST 6:35 PM CST
Moon 5:54 AM CST (1/10) 4:11 PM CST (1/10)
Length of Visible Light 10h 46m
Length of Day
9h 50m
Waning Crescent, 2% of the Moon is Illuminated
Jan 10
Waning Crescent
Jan 11
New
Jan 18
First Quarter
Jan 26
Full
Feb 3
Last Quarter

Hourly Weather History & Observations

Time (CST) Temp. Windchill Dew Point Humidity Pressure Visibility Wind Dir Wind Speed Gust Speed Precip Events Conditions
12:53 AM 48.9 °F - 39.9 °F 71% 30.37 in 10.0 mi NE 13.8 mph - 0.01 in Rain Light Rain
1:17 AM 48.2 °F - 39.2 °F 71% 30.36 in 8.0 mi ENE 12.7 mph 19.6 mph 0.01 in Rain Light Rain
1:53 AM 46.0 °F 40.2 °F 39.9 °F 79% 30.36 in 4.0 mi NE 12.7 mph - 0.07 in Rain Rain
2:16 AM 46.4 °F 40.7 °F 39.2 °F 76% 30.32 in 9.0 mi NE 12.7 mph - 0.02 in Rain Light Rain
2:34 AM 46.4 °F 41.1 °F 41.0 °F 81% 30.33 in 8.0 mi NE 11.5 mph - 0.02 in Rain Light Rain
2:53 AM 46.9 °F - 41.0 °F 80% 30.33 in 7.0 mi ENE 10.4 mph - 0.04 in Rain Light Rain
4:19 AM 46.4 °F 41.1 °F 42.8 °F 87% 30.24 in 6.0 mi NE 11.5 mph 20.7 mph 0.01 in Rain Light Rain
4:53 AM 46.0 °F 40.2 °F 42.1 °F 86% 30.25 in 9.0 mi NE 12.7 mph - 0.02 in Rain Light Rain
5:49 AM 46.4 °F 41.1 °F 42.8 °F 87% 30.22 in 2.0 mi ENE 11.5 mph - 0.06 in Rain Heavy Rain
6:03 AM 46.4 °F 42.4 °F 44.6 °F 93% 30.22 in 6.0 mi NE 8.1 mph - 0.00 in Rain Light Rain
6:23 AM 46.4 °F 42.4 °F 44.6 °F 93% 30.22 in 2.0 mi ENE 8.1 mph - 0.03 in Rain Rain
6:32 AM 46.4 °F 42.4 °F 44.6 °F 93% 30.22 in 1.8 mi NE 8.1 mph - 0.08 in Rain Rain
6:41 AM 46.4 °F 42.4 °F 44.6 °F 93% 30.22 in 2.5 mi ENE 8.1 mph - 0.09 in Rain Light Rain
6:49 AM 46.4 °F 41.9 °F 44.6 °F 93% 30.22 in 3.0 mi NE 9.2 mph - 0.10 in Rain Light Rain
6:53 AM 46.9 °F - 45.0 °F 93% 30.23 in 3.0 mi NE 6.9 mph - 0.10 in Rain Light Rain
7:40 AM 46.4 °F 42.9 °F 44.6 °F 93% 30.21 in 2.5 mi NE 6.9 mph - 0.00 in   Overcast
7:53 AM 46.9 °F - 45.0 °F 93% 30.22 in 2.5 mi ENE 5.8 mph - 0.00 in   Overcast
8:03 AM 46.4 °F 42.4 °F 44.6 °F 93% 30.21 in 3.0 mi NE 8.1 mph - N/A   Overcast
8:53 AM 48.0 °F - 46.0 °F 93% 30.21 in 4.0 mi East 8.1 mph - 0.00 in   Overcast
9:53 AM 50.0 °F - 48.0 °F 93% 30.20 in 4.0 mi ENE 6.9 mph - N/A   Overcast
10:33 AM 51.8 °F - 48.2 °F 88% 30.17 in 2.5 mi NE 6.9 mph - 0.00 in Rain Light Rain
10:53 AM 51.1 °F - 48.9 °F 92% 30.15 in 2.0 mi ENE 8.1 mph - 0.00 in Rain Light Rain
11:03 AM 51.8 °F - 48.2 °F 88% 30.14 in 2.0 mi ENE 6.9 mph - 0.00 in   Overcast
11:30 AM 51.8 °F - 50.0 °F 94% 30.11 in 1.8 mi ENE 5.8 mph - 0.00 in   Overcast
11:53 AM 53.1 °F - 51.1 °F 93% 30.10 in 1.2 mi East 8.1 mph - 0.00 in   Overcast
12:07 PM 53.6 °F - 51.8 °F 94% 30.09 in 0.8 mi East 5.8 mph - 0.01 in Rain Light Rain
12:30 PM 53.6 °F - 51.8 °F 94% 30.07 in 1.0 mi East 4.6 mph - 0.02 in Rain Light Rain
12:53 PM 54.0 °F - 52.0 °F 93% 30.06 in 0.8 mi ENE 9.2 mph - 0.02 in   Overcast
1:07 PM 55.4 °F - 53.6 °F 94% 30.04 in 1.5 mi East 8.1 mph - 0.01 in Rain Light Rain
1:15 PM 55.4 °F - 53.6 °F 94% 30.02 in 2.5 mi East 8.1 mph - N/A Rain Light Rain
1:37 PM 57.2 °F - 55.4 °F 94% 29.99 in 3.0 mi East 10.4 mph - 0.01 in Rain Light Rain
1:53 PM 57.9 °F - 55.9 °F 93% 29.98 in 4.0 mi East 9.2 mph - 0.02 in Rain Light Rain
2:53 PM 61.0 °F - 59.0 °F 93% 29.95 in 10.0 mi ESE 12.7 mph - 0.00 in Rain Light Rain
3:01 PM 62.6 °F - 59.0 °F 88% 29.95 in 10.0 mi SE 11.5 mph - 0.00 in Rain Light Rain
3:53 PM 64.0 °F - 60.1 °F 87% 29.93 in 10.0 mi SSE 15.0 mph - 0.00 in   Overcast
4:35 PM 64.4 °F - 60.8 °F 88% 29.91 in 10.0 mi SSE 12.7 mph - 0.01 in   Overcast
4:53 PM 64.0 °F - 61.0 °F 90% 29.91 in 10.0 mi SSE 10.4 mph - 0.01 in   Overcast
5:21 PM 64.4 °F - 60.8 °F 88% 29.90 in 10.0 mi SSE 5.8 mph - N/A   Overcast
5:37 PM 62.6 °F - 60.8 °F 94% 29.89 in 10.0 mi Calm Calm - N/A   Overcast
5:53 PM 63.0 °F - 60.1 °F 90% 29.90 in 9.0 mi Calm Calm - N/A   Overcast
6:11 PM 62.6 °F - 60.8 °F 94% 29.89 in 10.0 mi Calm Calm - N/A   Overcast
6:44 PM 62.6 °F - 60.8 °F 94% 29.89 in 10.0 mi ESE 3.5 mph - N/A   Overcast
6:53 PM 62.1 °F - 60.1 °F 93% 29.89 in 10.0 mi SE 3.5 mph - N/A   Overcast
7:53 PM 62.1 °F - 60.1 °F 93% 29.86 in 5.0 mi SSE 9.2 mph - 0.01 in Rain Light Rain
8:21 PM 62.6 °F - 60.8 °F 94% 29.86 in 5.0 mi South 10.4 mph - 0.03 in Rain Light Rain
8:29 PM 62.6 °F - 60.8 °F 94% 29.86 in 7.0 mi South 12.7 mph - 0.04 in Rain Light Rain
8:53 PM 64.0 °F - 61.0 °F 90% 29.85 in 8.0 mi South 15.0 mph 21.9 mph 0.04 in Rain Light Rain
9:37 PM 64.4 °F - 60.8 °F 88% 29.87 in 9.0 mi SSW 19.6 mph 38.0 mph 0.04 in Rain , Thunderstorm Light Rain
9:46 PM 64.4 °F - 60.8 °F 88% 29.87 in 10.0 mi SSW 17.3 mph 27.6 mph 0.04 in   Overcast
9:53 PM 63.0 °F - 60.1 °F 90% 29.87 in 10.0 mi SSW 17.3 mph 24.2 mph 0.04 in   Overcast
10:01 PM 62.6 °F - 59.0 °F 88% 29.87 in 10.0 mi SW 15.0 mph 29.9 mph N/A   Overcast
10:13 PM 62.6 °F - 59.0 °F 88% 29.86 in 10.0 mi SW 16.1 mph 26.5 mph N/A   Overcast
10:45 PM 62.6 °F - 57.2 °F 82% 29.86 in 10.0 mi SW 13.8 mph - N/A   Mostly Cloudy
11:53 PM 60.1 °F - 57.0 °F 90% 29.86 in 10.0 mi SSW 10.4 mph - N/A   Mostly Cloudy